Time,TemperatureF,DewpointF,PressureIn,WindDirection,WindDirectionDegrees,WindSpeedMPH,WindSpeedGustMPH,Humidity,HourlyPrecipIn,Conditions,Clouds,dailyrainin,SoftwareType,DateUTC
2013-07-08 00:04:00,70.3,70.0,30.03,NE,45,0.0,-999.0,99,-99.99,,,0.00,Acu-Link.com,2013-07-08 04:04:00,
2013-07-08 00:19:00,70.3,70.0,30.03,SSE,157,0.0,-999.0,99,-99.99,,,0.00,Acu-Link.com,2013-07-08 04:19:00,
2013-07-08 00:34:00,70.3,70.0,30.03,South,180,0.0,-999.0,99,-99.99,,,0.00,Acu-Link.com,2013-07-08 04:34:00,
2013-07-08 00:49:00,70.3,70.0,30.03,WNW,292,0.0,-999.0,99,-99.99,,,0.00,Acu-Link.com,2013-07-08 04:49:00,
2013-07-08 01:04:00,70.3,70.0,30.03,East,90,0.0,-999.0,99,-99.99,,,0.00,Acu-Link.com,2013-07-08 05:04:00,
2013-07-08 01:19:00,70.3,70.0,30.02,ESE,112,0.0,-999.0,99,-99.99,,,0.00,Acu-Link.com,2013-07-08 05:19:00,
2013-07-08 01:35:00,70.3,70.0,30.02,SSE,157,0.0,-999.0,99,-99.99,,,0.00,Acu-Link.com,2013-07-08 05:35:00,
2013-07-08 01:50:00,70.2,69.9,30.02,NW,315,0.0,-999.0,99,-99.99,,,0.00,Acu-Link.com,2013-07-08 05:50:00,
2013-07-08 02:05:00,70.2,69.9,30.01,ENE,67,0.0,-999.0,99,-99.99,,,0.00,Acu-Link.com,2013-07-08 06:05:00,
2013-07-08 02:20:00,70.0,69.7,30.01,ESE,112,0.0,-999.0,99,-99.99,,,0.00,Acu-Link.com,2013-07-08 06:20:00,
2013-07-08 02:35:00,70.0,69.7,30.02,SSE,157,0.0,-999.0,99,-99.99,,,0.00,Acu-Link.com,2013-07-08 06:35:00,
2013-07-08 02:50:00,70.0,69.7,30.01,South,180,0.0,-999.0,99,-99.99,,,0.00,Acu-Link.com,2013-07-08 06:50:00,
2013-07-08 03:06:00,69.8,69.5,30.01,ENE,67,0.0,-999.0,99,-99.99,,,0.00,Acu-Link.com,2013-07-08 07:06:00,
2013-07-08 03:21:00,69.8,69.5,30.00,East,90,0.0,-999.0,99,-99.99,,,0.00,Acu-Link.com,2013-07-08 07:21:00,
2013-07-08 03:36:00,69.8,69.5,30.01,SSE,157,0.0,-999.0,99,-99.99,,,0.00,Acu-Link.com,2013-07-08 07:36:00,
2013-07-08 03:51:00,70.0,69.7,30.01,SSE,157,0.0,-999.0,99,-99.99,,,0.00,Acu-Link.com,2013-07-08 07:51:00,
2013-07-08 04:07:00,70.2,69.9,30.00,SSE,157,0.0,-999.0,99,-99.99,,,0.00,Acu-Link.com,2013-07-08 08:07:00,
2013-07-08 04:22:00,70.2,69.9,30.01,SSE,157,0.0,-999.0,99,-99.99,,,0.00,Acu-Link.com,2013-07-08 08:22:00,
2013-07-08 04:37:00,70.0,69.7,30.02,SSE,157,0.0,-999.0,99,-99.99,,,0.00,Acu-Link.com,2013-07-08 08:37:00,
2013-07-08 04:52:00,70.0,69.7,30.01,East,90,0.0,-999.0,99,-99.99,,,0.00,Acu-Link.com,2013-07-08 08:52:00,
2013-07-08 05:07:00,70.0,69.7,30.01,South,180,0.0,-999.0,99,-99.99,,,0.01,Acu-Link.com,2013-07-08 09:07:00,
2013-07-08 05:22:00,70.0,69.7,30.02,SSE,157,0.0,-999.0,99,-99.99,,,0.01,Acu-Link.com,2013-07-08 09:22:00,
2013-07-08 05:37:00,70.0,69.7,30.03,North,0,0.0,-999.0,99,-99.99,,,0.01,Acu-Link.com,2013-07-08 09:37:00,
2013-07-08 05:52:00,70.0,69.7,30.02,NNE,22,0.0,-999.0,99,-99.99,,,0.01,Acu-Link.com,2013-07-08 09:52:00,
2013-07-08 06:07:00,70.0,69.7,30.03,NNE,22,0.0,-999.0,99,-99.99,,,0.01,Acu-Link.com,2013-07-08 10:07:00,
2013-07-08 06:23:00,70.0,69.7,30.04,WNW,292,0.0,-999.0,99,-99.99,,,0.01,Acu-Link.com,2013-07-08 10:23:00,
2013-07-08 06:38:00,70.0,69.7,30.03,NE,45,0.0,-999.0,99,-99.99,,,0.01,Acu-Link.com,2013-07-08 10:38:00,
2013-07-08 06:53:00,70.0,69.7,30.03,ESE,112,0.0,-999.0,99,-99.99,,,0.01,Acu-Link.com,2013-07-08 10:53:00,
2013-07-08 07:08:00,70.2,69.9,30.03,NW,315,0.0,-999.0,99,-99.99,,,0.01,Acu-Link.com,2013-07-08 11:08:00,
2013-07-08 07:23:00,70.5,70.2,30.04,West,270,0.0,-999.0,99,-99.99,,,0.01,Acu-Link.com,2013-07-08 11:23:00,
2013-07-08 07:38:00,71.1,70.8,30.04,East,90,0.0,-999.0,99,-99.99,,,0.01,Acu-Link.com,2013-07-08 11:38:00,
2013-07-08 07:53:00,71.6,71.3,30.04,SE,135,0.0,-999.0,99,-99.99,,,0.01,Acu-Link.com,2013-07-08 11:53:00,
2013-07-08 08:08:00,72.0,71.7,30.04,NW,315,0.0,-999.0,99,-99.99,,,0.01,Acu-Link.com,2013-07-08 12:08:00,
2013-07-08 08:23:00,73.2,72.9,30.05,West,270,0.0,-999.0,99,-99.99,,,0.01,Acu-Link.com,2013-07-08 12:23:00,
2013-07-08 08:39:00,73.8,73.5,30.05,SSW,202,0.0,-999.0,99,-99.99,,,0.01,Acu-Link.com,2013-07-08 12:39:00,
2013-07-08 08:54:00,76.1,75.5,30.05,East,90,0.0,-999.0,98,-99.99,,,0.01,Acu-Link.com,2013-07-08 12:54:00,
2013-07-08 09:09:00,77.0,75.1,30.05,WNW,292,0.0,-999.0,94,-99.99,,,0.01,Acu-Link.com,2013-07-08 13:09:00,
2013-07-08 09:24:00,78.3,75.8,30.05,ESE,112,0.0,-999.0,92,-99.99,,,0.01,Acu-Link.com,2013-07-08 13:24:00,
2013-07-08 09:39:00,81.1,76.1,30.05,West,270,0.0,-999.0,85,-99.99,,,0.01,Acu-Link.com,2013-07-08 13:39:00,
2013-07-08 09:54:00,81.9,76.6,30.05,North,0,0.0,-999.0,84,-99.99,,,0.01,Acu-Link.com,2013-07-08 13:54:00,
2013-07-08 10:09:00,82.6,76.2,30.06,NNE,22,0.0,-999.0,81,-99.99,,,0.01,Acu-Link.com,2013-07-08 14:09:00,
2013-07-08 10:24:00,82.9,76.1,30.06,East,90,0.0,-999.0,80,-99.99,,,0.01,Acu-Link.com,2013-07-08 14:24:00,
2013-07-08 10:39:00,82.8,76.0,30.07,South,180,0.0,-999.0,80,-99.99,,,0.01,Acu-Link.com,2013-07-08 14:39:00,
2013-07-08 10:55:00,84.0,77.1,30.07,WNW,292,0.0,-999.0,80,-99.99,,,0.01,Acu-Link.com,2013-07-08 14:55:00,
2013-07-08 11:10:00,85.1,76.7,30.07,NW,315,0.0,-999.0,76,-99.99,,,0.01,Acu-Link.com,2013-07-08 15:10:00,
2013-07-08 11:25:00,79.2,74.6,30.06,NE,45,0.0,-999.0,86,-99.99,,,0.01,Acu-Link.com,2013-07-08 15:25:00,
2013-07-08 11:40:00,80.4,75.8,30.06,NW,315,0.0,-999.0,86,-99.99,,,0.01,Acu-Link.com,2013-07-08 15:40:00,
2013-07-08 11:55:00,78.6,75.4,30.07,NNE,22,0.0,-999.0,90,-99.99,,,0.01,Acu-Link.com,2013-07-08 15:55:00,
2013-07-08 12:10:00,79.0,75.1,30.06,WNW,292,0.0,-999.0,88,-99.99,,,0.01,Acu-Link.com,2013-07-08 16:10:00,
2013-07-08 12:25:00,80.6,75.7,30.07,NNW,337,2.7,-999.0,85,-99.99,,,0.01,Acu-Link.com,2013-07-08 16:25:00,
2013-07-08 12:40:00,82.4,75.2,30.06,WSW,247,2.2,-999.0,79,-99.99,,,0.01,Acu-Link.com,2013-07-08 16:40:00,
2013-07-08 12:55:00,82.4,75.6,30.05,SE,135,1.7,-999.0,80,-99.99,,,0.01,Acu-Link.com,2013-07-08 16:55:00,
2013-07-08 13:11:00,84.6,75.8,30.05,West,270,1.7,-999.0,75,-99.99,,,0.01,Acu-Link.com,2013-07-08 17:11:00,
2013-07-08 13:41:00,86.0,75.0,30.03,West,270,0.0,-999.0,70,-99.99,,,0.01,Acu-Link.com,2013-07-08 17:41:00,
2013-07-08 13:56:00,85.8,75.7,30.03,ESE,112,5.3,-999.0,72,-99.99,,,0.01,Acu-Link.com,2013-07-08 17:56:00,
2013-07-08 14:26:00,84.4,74.8,30.02,West,270,2.7,-999.0,73,-99.99,,,0.01,Acu-Link.com,2013-07-08 18:26:00,
2013-07-08 14:41:00,86.9,74.6,30.02,SSW,202,1.7,-999.0,67,-99.99,,,0.01,Acu-Link.com,2013-07-08 18:41:00,
2013-07-08 14:57:00,86.2,77.3,30.01,WNW,292,2.7,-999.0,75,-99.99,,,0.01,Acu-Link.com,2013-07-08 18:57:00,
2013-07-08 15:12:00,87.8,73.1,30.01,ESE,112,1.1,-999.0,62,-99.99,,,0.01,Acu-Link.com,2013-07-08 19:12:00,
2013-07-08 15:42:00,87.1,73.4,29.99,ESE,112,0.0,-999.0,64,-99.99,,,0.01,Acu-Link.com,2013-07-08 19:42:00,
2013-07-08 16:12:00,89.6,72.8,29.98,SW,225,0.0,-999.0,58,-99.99,,,0.01,Acu-Link.com,2013-07-08 20:12:00,
2013-07-08 16:27:00,88.3,75.0,29.97,East,90,0.0,-999.0,65,-99.99,,,0.01,Acu-Link.com,2013-07-08 20:27:00,
2013-07-08 16:57:00,91.0,76.1,29.97,SSE,157,0.0,-999.0,62,-99.99,,,0.01,Acu-Link.com,2013-07-08 20:57:00,
2013-07-08 17:13:00,87.6,72.9,29.96,ESE,112,0.0,-999.0,62,-99.99,,,0.01,Acu-Link.com,2013-07-08 21:13:00,
2013-07-08 17:43:00,92.7,75.7,29.96,NE,45,0.0,-999.0,58,-99.99,,,0.01,Acu-Link.com,2013-07-08 21:43:00,
2013-07-08 17:58:00,92.1,75.7,29.96,NE,45,0.0,-999.0,59,-99.99,,,0.01,Acu-Link.com,2013-07-08 21:58:00,
2013-07-08 18:13:00,93.7,75.6,29.96,ENE,67,0.0,-999.0,56,-99.99,,,0.01,Acu-Link.com,2013-07-08 22:13:00,
2013-07-08 18:44:00,92.5,76.0,29.95,SW,225,0.0,-999.0,59,-99.99,,,0.01,Acu-Link.com,2013-07-08 22:44:00,
2013-07-08 19:14:00,87.3,78.8,29.95,SSE,157,0.0,-999.0,76,-99.99,,,0.01,Acu-Link.com,2013-07-08 23:14:00,
2013-07-08 19:44:00,85.5,78.2,29.96,South,180,0.0,-999.0,79,-99.99,,,0.01,Acu-Link.com,2013-07-08 23:44:00,
2013-07-08 19:59:00,85.1,78.2,29.97,East,90,0.0,-999.0,80,-99.99,,,0.01,Acu-Link.com,2013-07-08 23:59:00,
2013-07-08 20:30:00,81.7,77.8,29.97,ESE,112,0.0,-999.0,88,-99.99,,,0.01,Acu-Link.com,2013-07-09 00:30:00,
2013-07-08 20:45:00,80.1,76.9,29.97,ESE,112,0.0,-999.0,90,-99.99,,,0.01,Acu-Link.com,2013-07-09 00:45:00,
2013-07-08 21:15:00,77.5,76.3,29.98,ESE,112,0.0,-999.0,96,-99.99,,,0.01,Acu-Link.com,2013-07-09 01:15:00,
2013-07-08 21:45:00,75.9,75.3,29.98,ESE,112,0.0,-999.0,98,-99.99,,,0.01,Acu-Link.com,2013-07-09 01:45:00,
2013-07-08 22:00:00,75.4,75.1,29.99,South,180,0.0,-999.0,99,-99.99,,,0.01,Acu-Link.com,2013-07-09 02:00:00,
2013-07-08 22:15:00,75.0,74.7,30.00,WSW,247,0.0,-999.0,99,-99.99,,,0.01,Acu-Link.com,2013-07-09 02:15:00,
2013-07-08 22:46:00,75.2,74.3,30.02,West,270,2.2,-999.0,97,-99.99,,,0.01,Acu-Link.com,2013-07-09 02:46:00,
2013-07-08 23:16:00,74.7,73.8,30.03,North,0,0.0,-999.0,97,-99.99,,,0.01,Acu-Link.com,2013-07-09 03:16:00,
2013-07-08 23:31:00,74.3,73.7,30.02,South,180,0.0,-999.0,98,-99.99,,,0.01,Acu-Link.com,2013-07-09 03:31:00,
2013-07-08 23:46:00,73.8,73.5,30.02,ESE,112,0.0,-999.0,99,-99.99,,,0.01,Acu-Link.com,2013-07-09 03:46:00,